Wichita, KS

11:31 PM CST on November 18, 2019 (GMT -0600)
Wichita Eisenhower National Airport

Weather History for KICT - October, 2019

Change the Weather History Date:

Wednesday, October 23, 2019

  Actual Average Record
Temperature  
Mean Temperature 57 °F 56 °F  
Max Temperature 72 °F 67 °F 91 °F (2012)
Min Temperature 42 °F 45 °F 25 °F (1938)
Degree Days  
Heating Degree Days 8 10  
Month to date heating degree days 150 153  
Since 1 July heating degree days 150 196  
Cooling Degree Days 0 0  
Month to date cooling degree days 29 35  
Year to date cooling degree days 1881 1684  
Growing Degree Days 6 (Base 50)    
Moisture  
Dew Point 35 °F    
Average Humidity 48    
Maximum Humidity 67    
Minimum Humidity 28    
Precipitation  
Precipitation 0.00 in 0.08 in 1.00 in (2002)
Month to date precipitation 3.21 2.20  
Year to date precipitation 39.68 29.43  
Snow  
Snow 0.00 in 0.00 in 0.00 in (2007)
Month to date snowfall 0.0 0.0  
Since 1 July snowfall 0.0 0.0  
Since 1 September snowfall 0.0 0.0  
Snow Depth 0.00 in    
Sea Level Pressure  
Sea Level Pressure 29.95 in    
Wind  
Wind Speed 10 mph (WSW)    
Max Wind Speed 20 mph    
Max Gust Speed 26 mph    
Visibility 10 miles    
Events      
T = Trace of Precipitation, MM = Missing Value Source: NWS Daily Summary

Daily Weather History Graph

Daily Weather History Graph

Search for Another Location

Airport or City:

Astronomy

Oct. 23, 2019 Rise Set
Actual Time 7:45 AM CDT 6:41 PM CDT
Civil Twilight 7:18 AM CDT 7:08 PM CDT
Nautical Twilight 6:48 AM CDT 7:39 PM CDT
Astronomical Twilight 6:17 AM CDT 8:09 PM CDT
Moon 2:13 AM CDT (10/23) 4:25 PM CDT (10/23)
Length of Visible Light 11h 49m
Length of Day
10h 56m
Waning Crescent, 26% of the Moon is Illuminated
Oct 23
Waning Crescent
Oct 27
New
Nov 4
First Quarter
Nov 12
Full
Nov 19
Last Quarter

Hourly Weather History & Observations

Time (CDT) Temp. Windchill Dew Point Humidity Pressure Visibility Wind Dir Wind Speed Gust Speed Precip Events Conditions
12:53 AM 45.0 °F 39.3 °F 33.1 °F 63% 29.92 in 10.0 mi South 11.5 mph - N/A   Scattered Clouds
1:53 AM 52.0 °F - 32.0 °F 47% 29.90 in 10.0 mi SSW 15.0 mph - N/A   Mostly Cloudy
2:53 AM 53.1 °F - 30.9 °F 43% 29.91 in 10.0 mi SSW 10.4 mph - N/A   Mostly Cloudy
3:53 AM 50.0 °F - 30.0 °F 46% 29.90 in 10.0 mi SSW 12.7 mph - N/A   Mostly Cloudy
4:53 AM 48.0 °F - 30.0 °F 50% 29.90 in 10.0 mi South 8.1 mph - N/A   Mostly Cloudy
5:53 AM 43.0 °F 37.7 °F 32.0 °F 65% 29.90 in 10.0 mi South 9.2 mph - N/A   Mostly Cloudy
6:53 AM 42.1 °F 36.6 °F 32.0 °F 67% 29.91 in 10.0 mi South 9.2 mph - N/A   Mostly Cloudy
7:53 AM 43.0 °F 38.8 °F 32.0 °F 65% 29.90 in 10.0 mi SSE 6.9 mph - N/A   Scattered Clouds
8:53 AM 50.0 °F - 35.1 °F 57% 29.91 in 10.0 mi South 9.2 mph - N/A   Scattered Clouds
9:53 AM 55.9 °F - 36.0 °F 47% 29.92 in 10.0 mi SW 11.5 mph 20.7 mph N/A   Scattered Clouds
10:53 AM 60.1 °F - 36.0 °F 41% 29.92 in 10.0 mi SW 18.4 mph - N/A   Clear
11:53 AM 64.0 °F - 37.0 °F 37% 29.91 in 10.0 mi SW 12.7 mph - N/A   Scattered Clouds
12:53 PM 66.9 °F - 37.0 °F 33% 29.92 in 10.0 mi WSW 11.5 mph - N/A   Scattered Clouds
1:53 PM 70.0 °F - 36.0 °F 29% 29.90 in 10.0 mi NW 10.4 mph - N/A   Mostly Cloudy
2:53 PM 71.1 °F - 37.9 °F 30% 29.90 in 10.0 mi NNW 8.1 mph 18.4 mph N/A   Mostly Cloudy
3:53 PM 70.0 °F - 39.0 °F 32% 29.91 in 10.0 mi NNW 10.4 mph - N/A   Mostly Cloudy
4:53 PM 66.9 °F - 37.9 °F 34% 29.95 in 10.0 mi North 12.7 mph - N/A   Mostly Cloudy
5:53 PM 64.9 °F - 37.9 °F 37% 29.97 in 10.0 mi North 8.1 mph - N/A   Mostly Cloudy
6:53 PM 62.1 °F - 37.0 °F 39% 30.00 in 10.0 mi North 8.1 mph - N/A   Mostly Cloudy
7:53 PM 59.0 °F - 37.0 °F 44% 30.06 in 10.0 mi North 5.8 mph - N/A   Mostly Cloudy
8:53 PM 57.9 °F - 37.0 °F 46% 30.07 in 10.0 mi NNE 6.9 mph - N/A   Mostly Cloudy
9:53 PM 55.9 °F - 37.9 °F 51% 30.09 in 10.0 mi NE 9.2 mph - N/A   Mostly Cloudy
10:53 PM 55.9 °F - 37.9 °F 51% 30.11 in 10.0 mi NE 6.9 mph - N/A   Mostly Cloudy
11:53 PM 54.0 °F - 37.0 °F 53% 30.10 in 10.0 mi North 6.9 mph - N/A   Mostly Cloudy